TimeEST,TemperatureF,Dew PointF,Humidity,Sea Level PressureIn,VisibilityMPH,Wind Direction,Wind SpeedMPH,Gust SpeedMPH,PrecipitationIn,Events,Conditions,WindDirDegrees,DateUTC
12:58 AM,41.4,32.7,71,29.98,10.0,WNW,8.1,-,N/A,,Clear,300,2013-03-02 05:58:00
1:58 AM,38.7,30.9,74,29.98,10.0,WNW,6.9,-,N/A,,Clear,290,2013-03-02 06:58:00
2:58 AM,36.0,29.8,78,29.96,10.0,West,8.1,-,N/A,,Clear,270,2013-03-02 07:58:00
3:58 AM,34.2,29.3,82,29.96,10.0,West,8.1,-,N/A,,Clear,270,2013-03-02 08:58:00
4:58 AM,34.5,29.1,81,29.96,10.0,WSW,6.9,-,N/A,,Clear,250,2013-03-02 09:58:00
6:58 AM,33.8,30.2,87,29.95,10.0,WSW,5.8,-,N/A,,Clear,250,2013-03-02 11:58:00
7:58 AM,39.2,32.2,76,29.96,10.0,West,8.1,-,N/A,,Clear,260,2013-03-02 12:58:00
8:58 AM,44.6,32.0,61,29.96,10.0,West,15.0,-,N/A,,Clear,270,2013-03-02 13:58:00
9:58 AM,46.4,30.2,53,29.95,10.0,West,17.3,-,N/A,,Clear,260,2013-03-02 14:58:00
12:58 PM,47.8,26.1,43,29.92,10.0,West,19.6,-,N/A,,Overcast,270,2013-03-02 17:58:00
1:55 PM,49.6,25.9,40,29.90,10.0,West,17.3,-,N/A,,Overcast,280,2013-03-02 18:55:00
2:55 PM,50.0,26.6,40,29.88,10.0,WNW,18.4,25.3,N/A,,Overcast,300,2013-03-02 19:55:00
3:55 PM,48.2,26.6,43,29.89,10.0,West,17.3,24.2,N/A,,Overcast,270,2013-03-02 20:55:00
4:58 PM,47.5,27.9,47,29.91,10.0,West,16.1,-,N/A,,Overcast,270,2013-03-02 21:58:00
5:58 PM,46.2,27.7,48,29.92,10.0,West,15.0,-,N/A,,Overcast,280,2013-03-02 22:58:00
6:55 PM,44.6,28.4,53,29.94,10.0,West,15.0,-,N/A,,Overcast,270,2013-03-02 23:55:00
8:58 PM,41.4,28.9,61,29.98,10.0,West,10.4,-,N/A,,Clear,270,2013-03-03 01:58:00
9:58 PM,38.1,28.6,69,29.98,10.0,West,9.2,-,N/A,,Clear,260,2013-03-03 02:58:00
10:58 PM,36.3,29.3,76,29.99,10.0,West,6.9,-,N/A,,Clear,260,2013-03-03 03:58:00
11:58 PM,34.7,28.6,78,29.98,10.0,West,9.2,-,N/A,,Clear,270,2013-03-03 04:58:00